Weather History for PASX - September, 2014

Change the Weather History Date:

Sunday, September 14, 2014

  Actual Average Record
Temperature  
Mean Temperature 47 °F -  
Max Temperature 57 °F 55 °F 66 °F (1997)
Min Temperature 37 °F 40 °F 21 °F (1987)
Degree Days  
Heating Degree Days 18    
Moisture  
Dew Point 40 °F    
Average Humidity 75    
Maximum Humidity 93    
Minimum Humidity 55    
Precipitation  
Precipitation 0.00 in - - ()
Sea Level Pressure  
Sea Level Pressure 29.62 in    
Wind  
Wind Speed 4 mph (East)    
Max Wind Speed 15 mph    
Max Gust Speed 18 mph    
Visibility 10 miles    
Events      
Averages and records for this station are not official NWS values.
T = Trace of Precipitation, MM = Missing Value Source: NWS Daily Summary

Daily Weather History Graph

Daily Weather History Graph

Search for Another Location

Airport or City:

Trip Planner

Search our weather history database for the weather conditions in past years. The results will help you decide how hot, cold, wet, or windy it might be!

Date:

Astronomy

Sep. 14, 2014 Rise Set
Actual Time 7:29 AM AKDT 8:28 PM AKDT
Civil Twilight 6:46 AM AKDT 9:10 PM AKDT
Nautical Twilight 5:53 AM AKDT 10:03 PM AKDT
Astronomical Twilight 4:52 AM AKDT 11:04 PM AKDT
Moon 10:55 PM AKDT (9/14) 3:18 PM AKDT (9/14)
Length of Visible Light 14h 24m
Length of Day
12h 58m
Waning Gibbous, 63% of the Moon is Illuminated
Sep 14
Waning Gibbous
Sep 15
Last Quarter
Sep 23
New
Oct 1
First Quarter
Oct 8
Full

Hourly Weather History & Observations

Time (AKDT) Temp. Windchill Dew Point Humidity Pressure Visibility Wind Dir Wind Speed Gust Speed Precip Events Conditions
12:16 AM 46.4 °F - 41.0 °F 81% 29.66 in 10.0 mi Calm Calm - N/A   Clear
12:36 AM 44.6 °F - 39.2 °F 81% 29.66 in 10.0 mi Calm Calm - N/A   Clear
12:56 AM 42.8 °F - 39.2 °F 87% 29.66 in 10.0 mi Calm Calm - N/A   Clear
1:16 AM 42.8 °F 41.1 °F 39.2 °F 87% 29.65 in 10.0 mi East 3.5 mph - N/A   Clear
1:36 AM 42.8 °F 41.1 °F 37.4 °F 81% 29.66 in 10.0 mi ENE 3.5 mph - N/A   Clear
1:56 AM 41.0 °F 39.0 °F 37.4 °F 87% 29.66 in 10.0 mi East 3.5 mph - N/A   Clear
2:16 AM 41.0 °F 38.0 °F 37.4 °F 87% 29.66 in 10.0 mi East 4.6 mph - N/A   Mostly Cloudy
2:36 AM 41.0 °F 39.0 °F 37.4 °F 87% 29.67 in 10.0 mi East 3.5 mph - N/A   Overcast
2:56 AM 42.8 °F - 37.4 °F 81% 29.67 in 10.0 mi Calm Calm - N/A   Mostly Cloudy
3:16 AM 42.8 °F - 37.4 °F 81% 29.67 in 10.0 mi Calm Calm - N/A   Partly Cloudy
3:36 AM 39.2 °F 37.0 °F 37.4 °F 93% 29.67 in 10.0 mi ENE 3.5 mph - N/A   Clear
3:56 AM 41.0 °F 38.0 °F 37.4 °F 87% 29.67 in 10.0 mi ENE 4.6 mph - N/A   Clear
4:16 AM 39.2 °F - 37.4 °F 93% 29.67 in 10.0 mi Calm Calm - N/A   Clear
4:36 AM 37.4 °F 33.8 °F 35.6 °F 93% 29.67 in 10.0 mi East 4.6 mph - N/A   Clear
4:56 AM 39.2 °F 37.0 °F 35.6 °F 87% 29.67 in 10.0 mi East 3.5 mph - N/A   Clear
5:16 AM 42.8 °F 41.1 °F 37.4 °F 81% 29.67 in 10.0 mi East 3.5 mph - N/A   Clear
5:36 AM 41.0 °F - 35.6 °F 81% 29.66 in 10.0 mi Calm Calm - N/A   Clear
5:56 AM 41.0 °F 39.0 °F 35.6 °F 81% 29.66 in 10.0 mi ENE 3.5 mph - N/A   Clear
6:16 AM 41.0 °F 35.8 °F 35.6 °F 81% 29.65 in 10.0 mi East 8.1 mph - N/A   Clear
6:36 AM 41.0 °F 38.0 °F 35.6 °F 81% 29.65 in 10.0 mi ENE 4.6 mph - N/A   Clear
6:56 AM 39.2 °F 35.0 °F 35.6 °F 87% 29.65 in 10.0 mi East 5.8 mph - N/A   Clear
7:16 AM 41.0 °F 35.2 °F 35.6 °F 81% 29.65 in 10.0 mi ESE 9.2 mph - N/A   Clear
7:36 AM 41.0 °F 39.0 °F 35.6 °F 81% 29.65 in 10.0 mi ENE 3.5 mph - N/A   Clear
7:56 AM 41.0 °F 37.1 °F 35.6 °F 81% 29.65 in 10.0 mi East 5.8 mph - N/A   Clear
8:16 AM 42.8 °F - 37.4 °F 81% 29.65 in 10.0 mi Calm Calm - N/A   Clear
8:36 AM 42.8 °F - 37.4 °F 81% 29.65 in 10.0 mi Calm Calm - N/A   Clear
8:56 AM 42.8 °F 40.1 °F 37.4 °F 81% 29.65 in 10.0 mi NE 4.6 mph - N/A   Clear
9:16 AM 42.8 °F - 37.4 °F 81% 29.65 in 10.0 mi Calm Calm - N/A   Clear
9:36 AM 42.8 °F 40.1 °F 37.4 °F 81% 29.65 in 10.0 mi East 4.6 mph - N/A   Clear
9:56 AM 44.6 °F 41.4 °F 39.2 °F 81% 29.65 in 10.0 mi East 5.8 mph - N/A   Clear
10:16 AM 44.6 °F 43.1 °F 39.2 °F 81% 29.65 in 10.0 mi East 3.5 mph - N/A   Clear
10:36 AM 46.4 °F 43.5 °F 41.0 °F 81% 29.65 in 10.0 mi East 5.8 mph - N/A   Clear
10:56 AM 46.4 °F 45.2 °F 41.0 °F 81% 29.65 in 10.0 mi East 3.5 mph - N/A   Clear
11:16 AM 46.4 °F 45.2 °F 41.0 °F 81% 29.65 in 10.0 mi ENE 3.5 mph - N/A   Clear
11:36 AM 48.2 °F - 42.8 °F 82% 29.66 in 10.0 mi ESE 3.5 mph - N/A   Clear
11:56 AM 50.0 °F - 42.8 °F 76% 29.65 in 10.0 mi Calm Calm - N/A   Clear
12:16 PM 50.0 °F - 42.8 °F 76% 29.65 in 10.0 mi East 4.6 mph - N/A   Clear
12:36 PM 51.8 °F - 44.6 °F 76% 29.65 in 10.0 mi East 4.6 mph - N/A   Clear
12:56 PM 51.8 °F - 44.6 °F 76% 29.64 in 10.0 mi East 3.5 mph - N/A   Clear
1:16 PM 53.6 °F - 44.6 °F 72% 29.63 in 10.0 mi ESE 3.5 mph - N/A   Clear
1:36 PM 53.6 °F - 44.6 °F 72% 29.63 in 10.0 mi East 3.5 mph - N/A   Clear
1:56 PM 53.6 °F - 44.6 °F 72% 29.63 in 10.0 mi East 8.1 mph - N/A   Clear
2:16 PM 53.6 °F - 44.6 °F 72% 29.63 in 10.0 mi East 4.6 mph - N/A   Clear
2:36 PM 55.4 °F - 44.6 °F 67% 29.62 in 10.0 mi East 4.6 mph - N/A   Clear
2:56 PM 55.4 °F - 42.8 °F 63% 29.62 in 10.0 mi East 5.8 mph - N/A   Clear
3:16 PM 55.4 °F - 42.8 °F 63% 29.62 in 10.0 mi ENE 3.5 mph - N/A   Clear
3:36 PM 55.4 °F - 42.8 °F 63% 29.61 in 10.0 mi East 3.5 mph - N/A   Clear
3:56 PM 55.4 °F - 42.8 °F 63% 29.61 in 10.0 mi East 4.6 mph - N/A   Clear
4:16 PM 55.4 °F - 42.8 °F 63% 29.61 in 10.0 mi ESE 5.8 mph - N/A   Mostly Cloudy
4:36 PM 55.4 °F - 42.8 °F 63% 29.60 in 10.0 mi ESE 9.2 mph - N/A   Scattered Clouds
4:56 PM 55.4 °F - 42.8 °F 63% 29.60 in 10.0 mi ESE 6.9 mph - N/A   Mostly Cloudy
5:16 PM 55.4 °F - 42.8 °F 63% 29.59 in 10.0 mi East 8.1 mph - N/A   Mostly Cloudy
5:36 PM 55.4 °F - 42.8 °F 63% 29.59 in 10.0 mi ESE 5.8 mph - N/A   Partly Cloudy
5:56 PM 57.2 °F - 42.8 °F 59% 29.58 in 10.0 mi East 8.1 mph - N/A   Clear
6:16 PM 55.4 °F - 42.8 °F 63% 29.58 in 10.0 mi East 6.9 mph - N/A   Scattered Clouds
6:36 PM 57.2 °F - 41.0 °F 55% 29.58 in 10.0 mi East 12.7 mph 17.3 mph N/A   Overcast
6:56 PM 57.2 °F - 41.0 °F 55% 29.57 in 10.0 mi NE 4.6 mph - N/A   Overcast
7:16 PM 55.4 °F - 42.8 °F 63% 29.57 in 10.0 mi NE 5.8 mph - N/A   Scattered Clouds
7:36 PM 55.4 °F - 42.8 °F 63% 29.57 in 10.0 mi ENE 5.8 mph - N/A   Scattered Clouds
7:56 PM 55.4 °F - 41.0 °F 58% 29.56 in 10.0 mi East 12.7 mph - N/A   Mostly Cloudy
8:16 PM - - - N/A% 29.56 in 10.0 mi East 11.5 mph - N/A   Mostly Cloudy
8:36 PM 55.4 °F - 41.0 °F 58% 29.56 in 10.0 mi East 11.5 mph - N/A   Mostly Cloudy
8:56 PM - - - N/A% 29.56 in 10.0 mi East 12.7 mph 18.4 mph N/A   Overcast
9:16 PM 53.6 °F - 41.0 °F 62% 29.56 in 10.0 mi East 11.5 mph - N/A   Overcast
9:36 PM - - - N/A% 29.55 in 10.0 mi East 15.0 mph - N/A   Overcast
9:56 PM - - - N/A% 29.56 in 10.0 mi East 11.5 mph 17.3 mph N/A   Overcast
10:16 PM - - - N/A% 29.55 in 10.0 mi East 10.4 mph - N/A   Overcast
10:36 PM 53.6 °F - 42.8 °F 67% 29.55 in 10.0 mi East 9.2 mph - N/A   Overcast
10:56 PM 53.6 °F - 41.0 °F 62% 29.55 in 10.0 mi East 9.2 mph - N/A   Mostly Cloudy
11:16 PM 53.6 °F - 41.0 °F 62% 29.55 in 10.0 mi East 9.2 mph - N/A   Scattered Clouds
11:36 PM - - - N/A% 29.55 in 10.0 mi East 11.5 mph - N/A   Mostly Cloudy
11:56 PM - - - N/A% 29.54 in 10.0 mi East 10.4 mph - N/A   Mostly Cloudy